Location: Contre
(49.7477°N, 2.0963°E)
Time: 13:51:00
(UTC+00:00)

Meteor 2-12 Rocket - Visible Passes

Search period start: 25 September 2023 00:00
Search period end: 05 October 2023 00:00
Orbit: 936 x 956 km, 82.5° (Epoch: 24 September)

Date Brightness Start Highest point End Pass type
(mag) Time Alt. Az. Time Alt. Az. Time Alt. Az.
25 Sep 6.5 02:31:59 10° SE 02:36:44 24° E 02:41:30 10° NNE visible
25 Sep 4.4 04:14:54 10° SSW 04:21:01 66° WNW 04:27:10 10° N visible
26 Sep 5.9 02:47:40 10° SSE 02:53:08 35° E 02:58:37 10° NNE visible
26 Sep 4.8 04:31:56 10° SW 04:37:48 45° WNW 04:43:43 10° N visible
27 Sep 5.2 03:04:02 12° SSE 03:09:37 51° E 03:15:33 10° NNE visible
27 Sep 5.2 04:49:16 10° SW 04:54:42 32° WNW 05:00:10 10° N visible
28 Sep 7.0 01:39:37 10° ESE 01:42:29 14° ENE 01:45:19 10° NE visible
28 Sep 4.6 03:21:33 18° S 03:26:11 75° E 03:32:21 10° NNE visible
28 Sep 5.6 05:06:57 10° WSW 05:11:42 23° WNW 05:16:28 10° NNW visible
29 Sep 6.6 01:54:52 12° ESE 01:58:44 20° E 02:03:05 10° NE visible
29 Sep 4.3 03:38:58 24° SSW 03:42:51 77° W 03:49:03 10° N visible
30 Sep 6.0 02:12:12 21° SE 02:15:05 30° E 02:20:19 10° NNE visible
30 Sep 4.6 03:56:17 26° SW 03:59:36 53° WNW 04:05:39 10° N visible
01 Oct 5.4 02:29:27 33° SE 02:31:32 44° E 02:37:19 10° NNE visible
01 Oct 5.0 04:13:32 24° WSW 04:16:27 37° WNW 04:22:08 10° N visible
02 Oct 7.0 01:02:47 10° E 01:04:31 11° ENE 01:06:16 10° ENE visible
02 Oct 4.7 02:46:38 50° SSE 02:48:04 64° E 02:54:10 10° NNE visible
02 Oct 5.5 04:30:43 20° W 04:33:24 26° WNW 04:38:30 10° N visible
03 Oct 6.6 01:19:41 17° E 01:20:45 17° E 01:24:35 10° NE visible
03 Oct 4.3 03:03:46 67° SSW 03:04:42 88° W 03:10:54 10° N visible
03 Oct 5.9 04:47:51 15° W 04:50:27 18° WNW 04:54:38 10° NNW visible
04 Oct 6.1 01:36:46 26° E 01:37:04 26° E 01:41:59 10° NNE visible
04 Oct 4.4 03:20:51 59° WSW 03:21:25 62° WNW 03:27:32 10° N visible
04 Oct 6.2 05:04:55 10° W 05:07:37 13° NW 05:10:20 10° NNW visible
